Wind_Speed
29 33 29 30 29 38 33 27 28 28 23 23 28 25 39 41 37 35 33 31 33 37 37 37 35 33 32 29 27 26 27 25 25 25 26 26 27 27 26 25 23 21 19
29 29 26 27 27 35 31 29 30 30 24 26 26 23 38 34 34 35 38 39 33 32 33 35 33 32 31 30 33 29 29 29 27 28 29 30 30 28 30 28 25 23 21
30 25 26 26 25 31 34 26 33 24 25 27 32 30 37 33 35 35 36 34 39 35 35 36 34 34 34 34 34 32 32 32 33 30 31 32 32 28 28 30 24 23 22
19 18 21 24 21 24 27 32 35 37 31 28 26 36 44 40 36 32 35 35 40 38 38 34 40 40 34 34 32 30 32 29 34 33 30 32 34 33 33 32 25 27 25
11 16 18 19 28 26 31 24 36 33 18 28 25 24 36 45 38 41 34 36 40 42 37 35 32 33 32 33 34 33 36 41 39 31 31 42 42 35 34 33 33 30 27
16 14 21 21 22 22 23 27 29 32 38 22 17 23 34 28 44 38 36 34 40 39 41 34 35 39 40 44 40 44 45 44 47 53 52 36 36 35 35 35 37 28 24
13 11 17 22 18 20 19 22 9 33 35 20 17 26 23 38 30 34 26 26 44 36 39 37 40 41 38 44 52 54 55 54 48 34 32 28 40 36 19 9 8 13 17
15 9 20 17 18 20 14 14 15 14 23 18 32 11 17 17 6 21 30 30 9 26 27 12 37 45 41 34 35 43 41 43 55 15 18 17 13 11 7 10 20 18 18
9 2 10 12 16 14 17 14 11 11 9 4 2 6 6 4 8 5 6 6 7 7 11 12 17 21 16 19 13 18 20 28 23 12 18 14 15 20 21 23 19 20 19
17 6 7 12 14 19 14 14 9 8 4 1 2 5 9 10 10 10 12 12 13 17 17 24 24 23 18 18 18 18 15 10 15 18 25 22 23 26 28 23 18 20 22
9 8 8 18 19 16 13 12 7 4 3 3 5 8 11 13 14 13 16 18 18 20 21 22 24 22 21 21 21 19 21 19 21 23 23 22 19 20 20 20 22 23 25
17 15 9 15 12 13 10 8 6 3 2 4 7 10 13 14 15 16 18 20 21 23 23 24 25 25 25 25 25 25 23 24 26 23 22 21 20 19 22 24 25 26 28
14 16 16 13 13 7 4 3 1 3 5 8 10 12 14 15 16 17 20 22 23 24 25 27 29 29 29 29 28 27 26 25 25 27 26 25 24 24 25 27 27 27 29
14 12 9 7 5 3 3 5 6 9 11 12 14 16 16 17 17 19 22 24 27 28 28 29 30 29 29 29 30 28 28 27 27 29 31 31 29 30 30 29 30 31 30
6 5 4 5 5 7 9 11 14 16 18 20 21 22 22 23 24 25 26 27 30 31 33 35 36 35 33 33 31 30 31 31 31 33 33 35 36 35 35 34 34 33 31
5 6 8 10 13 15 17 20 22 25 27 28 29 29 28 28 29 29 30 31 31 33 35 36 38 38 38 37 35 34 34 34 35 36 38 38 37 37 38 38 36 34 31
12 14 16 18 21 23 26 28 30 31 30 30 29 29 29 29 30 31 32 33 33 33 33 34 35 36 38 36 36 36 36 37 38 38 39 39 39 38 40 38 35 32 29
19 21 23 25 28 30 31 31 31 31 31 31 31 30 29 29 30 31 32 33 35 36 35 33 33 34 34 35 36 37 38 39 39 39 40 41 41 40 38 35 32 30 28
20 21 23 25 28 29 30 31 34 35 36 35 34 34 34 34 33 31 31 32 34 36 37 38 36 35 33 33 34 37 38 38 39 40 40 40 38 37 35 32 30 29 26
22 25 27 28 29 30 32 33 33 34 33 32 31 31 34 35 36 36 35 34 35 34 35 38 39 38 37 35 34 36 37 38 37 38 38 37 34 33 32 30 29 27 25
28 31 34 37 39 40 37 33 31 30 28 27 30 33 36 37 38 38 36 33 32 33 34 34 36 37 39 38 34 34 34 34 34 35 35 34 33 32 32 30 28 28 27
32 36 38 40 42 42 42 40 38 37 35 34 35 36 38 39 40 41 40 38 35 32 31 33 34 34 37 38 36 34 33 32 32 33 33 33 33 32 32 31 31 30 29
37 39 41 42 42 43 44 44 43 44 43 42 42 42 42 41 41 40 41 42 41 38 35 33 32 33 34 36 37 34 33 32 33 34 35 35 34 35 35 33 33 31 30
41 43 44 45 45 44 45 45 46 46 46 45 44 41 40 41 41 41 41 40 39 39 39 38 36 34 33 32 35 35 34 36 34 34 35 35 36 37 36 36 35 32 31
44 45 47 47 47 46 46 45 44 44 44 44 41 39 37 36 35 34 35 36 35 35 37 39 39 37 34 31 30 32 37 38 38 36 38 40 38 38 37 37 36 33 35
47 48 49 49 48 47 46 44 41 41 41 41 39 37 36 33 31 31 29 29 31 30 31 34 38 39 38 33 32 33 38 36 41 43 39 38 39 41 38 36 36 37 37
Wind_Direction
236 246 221 231 234 238 248 241 221 225 228 233 229 227 222 208 208 215 213 217 215 215 216 218 222 228 233 237 245 252 259 263 269 270 268 266 266 264 264 263 269 270 271
222 234 221 231 235 229 244 244 225 229 236 233 221 237 210 213 217 216 214 219 215 219 223 225 228 233 237 243 247 253 261 264 268 269 267 267 265 263 260 261 262 261 261
238 236 225 233 237 233 241 247 239 236 227 238 239 216 208 219 213 218 216 215 214 230 232 230 234 243 243 246 252 257 255 269 268 264 265 264 263 261 262 260 259 251 253
245 250 233 236 238 243 262 262 243 244 238 241 238 227 222 221 209 210 215 216 221 224 230 228 235 238 243 247 249 254 257 267 267 269 249 257 258 253 253 255 245 240 245
256 241 232 236 240 252 262 261 268 238 232 229 244 238 235 220 211 211 202 211 216 225 226 227 231 237 241 252 253 258 258 260 269 259 259 258 245 245 251 255 254 248 242
248 237 222 236 231 229 237 265 261 226 236 217 237 237 221 217 212 217 215 221 226 229 228 234 236 248 252 258 255 257 255 267 266 279 275 254 252 239 250 249 258 263 260
210 232 225 234 241 226 235 248 255 229 231 214 236 227 227 222 245 223 233 226 229 236 235 246 247 251 278 279 257 256 254 263 271 259 249 251 251 244 201 194 194 245 254
207 222 192 203 190 191 178 183 198 183 211 200 223 214 219 242 239 234 250 245 282 242 247 309 246 254 260 276 244 248 264 258 256 234 231 248 217 235 242 217 244 253 264
181 203 176 168 161 156 153 170 153 121 95 68 66 346 352 320 189 205 183 210 205 243 248 246 236 243 255 274 288 245 240 247 229 217 231 221 220 236 251 255 241 257 268
170 121 173 164 146 127 128 106 89 84 82 11 297 294 282 257 252 237 241 234 244 245 241 245 248 249 240 255 258 257 279 262 235 228 235 240 244 251 248 245 257 267 275
171 186 181 146 129 116 105 97 102 114 137 205 233 247 253 256 255 249 250 250 250 250 254 252 255 254 256 255 252 248 247 258 246 244 242 244 241 246 244 248 257 268 277
143 161 173 134 132 122 123 126 140 147 219 252 251 248 251 256 259 261 261 261 263 264 263 260 259 259 259 257 255 251 248 248 242 237 235 232 234 238 247 254 263 270 276
116 114 103 98 88 105 123 133 157 261 262 261 260 261 259 260 262 264 265 268 265 262 262 263 261 257 254 252 250 249 245 243 239 233 231 234 238 245 253 258 264 269 275
86 92 104 123 149 195 258 280 278 274 271 271 271 271 272 273 274 271 268 267 265 264 264 263 261 261 259 254 252 251 249 245 242 242 240 240 242 249 256 262 268 271 275
132 146 182 215 237 252 262 269 272 274 275 275 275 275 275 277 276 274 271 268 266 265 261 260 260 259 257 256 253 250 248 247 245 246 245 247 248 249 255 262 268 270 271
224 250 265 271 275 283 288 288 288 287 287 287 285 285 283 281 278 274 272 269 266 262 260 259 259 256 256 256 254 251 248 248 247 246 247 248 249 250 255 261 265 266 267
276 281 282 285 287 291 292 293 294 294 294 292 291 289 284 281 276 273 270 268 268 267 263 260 258 258 256 254 255 254 250 249 249 248 249 249 250 252 254 258 260 260 259
278 285 285 287 291 294 296 298 298 298 297 296 295 291 287 283 279 276 272 267 266 266 268 264 260 257 255 254 253 252 252 251 250 250 249 249 249 251 253 254 255 256 257
275 278 280 283 288 291 294 296 296 297 296 297 295 294 292 290 287 280 273 269 266 264 264 265 263 262 258 254 251 250 250 251 250 249 249 249 250 250 249 248 248 250 256
294 292 291 289 286 285 288 290 292 293 294 294 292 288 281 279 276 275 273 271 269 266 264 261 260 259 259 256 252 251 249 248 249 251 250 250 247 246 247 245 247 251 256
300 302 305 307 309 310 312 312 307 301 295 283 273 272 273 276 279 280 281 279 273 269 264 260 259 256 257 257 254 253 252 250 247 245 244 244 243 241 243 243 247 251 255
303 305 307 308 309 311 311 310 306 299 293 286 282 279 276 275 275 276 278 277 277 275 274 270 264 257 254 253 251 249 252 251 248 244 241 240 241 242 242 243 245 250 253
307 306 307 307 309 309 306 304 302 298 295 293 290 286 283 281 280 279 276 275 276 274 273 272 270 261 253 250 248 242 244 244 248 245 242 239 238 241 243 244 248 250 254
306 307 307 307 306 305 302 301 300 298 296 295 294 292 289 285 283 281 280 279 277 275 272 270 268 270 263 251 248 243 236 242 239 244 246 245 243 242 241 245 249 252 257
307 307 307 306 306 304 303 301 299 298 297 296 295 294 290 287 284 280 277 276 275 274 272 269 268 265 265 261 245 244 239 242 247 239 236 239 244 247 245 247 250 252 255
308 308 307 306 307 304 302 301 299 296 294 294 295 294 292 289 285 282 278 277 279 276 274 273 268 265 262 261 247 241 239 247 245 248 238 233 237 245 249 247 249 251 253
Height
3046 3048 3053 3055 3059 3059 3066 3068 3074 3075 3077 3079 3079 3082 3086 3092 3097 3101 3107 3112 3115 3119 3124 3128 3131 3134 3138 3141 3143 3145 3147 3149 3150 3151 3152 3152 3152 3153 3154 3154 3155 3155 3155
3040 3043 3048 3050 3055 3058 3064 3064 3067 3069 3072 3075 3075 3078 3083 3090 3096 3098 3103 3108 3111 3115 3119 3123 3127 3130 3133 3136 3139 3140 3141 3143 3145 3145 3146 3146 3147 3147 3148 3149 3150 3150 3151
3036 3039 3044 3048 3050 3055 3060 3063 3062 3064 3069 3071 3071 3075 3080 3082 3088 3093 3096 3100 3104 3110 3115 3119 3122 3124 3129 3131 3134 3134 3135 3137 3140 3141 3141 3139 3139 3141 3141 3142 3145 3145 3144
3033 3036 3041 3045 3048 3052 3054 3055 3057 3060 3063 3067 3067 3068 3072 3077 3081 3085 3092 3097 3101 3105 3110 3114 3117 3120 3122 3125 3127 3127 3128 3129 3133 3133 3134 3133 3134 3133 3133 3134 3138 3137 3137
3030 3032 3036 3040 3044 3047 3049 3052 3053 3054 3054 3059 3062 3063 3066 3071 3075 3080 3081 3088 3093 3097 3103 3107 3110 3113 3114 3118 3119 3121 3121 3122 3123 3123 3125 3123 3125 3124 3125 3127 3131 3132 3132
3026 3028 3031 3033 3035 3041 3045 3047 3044 3048 3050 3054 3057 3061 3062 3067 3068 3071 3077 3083 3089 3091 3095 3098 3102 3105 3110 3112 3112 3113 3113 3114 3117 3116 3118 3116 3117 3118 3119 3120 3122 3123 3125
3024 3025 3026 3030 3034 3033 3036 3043 3040 3044 3047 3051 3056 3057 3059 3064 3065 3070 3073 3076 3079 3084 3088 3091 3095 3099 3101 3100 3103 3105 3105 3107 3110 3108 3107 3108 3107 3110 3112 3116 3117 3118 3119
3023 3024 3024 3027 3029 3033 3035 3036 3040 3041 3042 3047 3051 3055 3056 3060 3062 3062 3065 3072 3072 3076 3081 3082 3085 3092 3096 3093 3087 3093 3094 3098 3100 3100 3102 3102 3103 3104 3107 3108 3109 3112 3114
3022 3024 3023 3026 3029 3031 3033 3040 3040 3041 3044 3047 3051 3053 3056 3059 3061 3064 3067 3070 3071 3073 3074 3077 3082 3087 3086 3087 3083 3083 3084 3087 3089 3093 3097 3097 3098 3100 3101 3104 3104 3105 3106
3024 3023 3025 3026 3029 3031 3036 3037 3041 3044 3047 3051 3052 3055 3057 3059 3061 3062 3065 3068 3068 3069 3070 3073 3075 3077 3078 3080 3081 3079 3080 3082 3086 3088 3090 3091 3093 3094 3096 3097 3098 3100 3100
3024 3026 3028 3029 3031 3033 3037 3040 3044 3047 3049 3052 3053 3055 3057 3059 3059 3058 3060 3063 3063 3065 3067 3069 3070 3070 3072 3074 3074 3074 3075 3077 3080 3082 3084 3085 3086 3088 3090 3092 3094 3095 3095
3026 3027 3029 3033 3034 3037 3041 3044 3045 3047 3050 3050 3055 3059 3060 3058 3056 3053 3055 3056 3058 3058 3061 3063 3065 3065 3066 3068 3068 3069 3071 3071 3074 3075 3076 3078 3080 3082 3085 3086 3087 3087 3087
3030 3032 3034 3036 3038 3043 3045 3046 3047 3049 3052 3053 3056 3056 3056 3055 3052 3049 3050 3050 3052 3052 3053 3054 3057 3058 3060 3061 3061 3062 3062 3064 3066 3068 3070 3072 3073 3074 3078 3080 3080 3080 3079
3034 3037 3039 3042 3044 3046 3046 3047 3048 3049 3051 3052 3054 3054 3050 3048 3042 3041 3044 3044 3046 3045 3044 3047 3048 3051 3052 3053 3053 3052 3055 3055 3058 3060 3062 3064 3066 3068 3069 3070 3071 3071 3071
3037 3038 3041 3044 3045 3046 3046 3046 3047 3046 3046 3045 3045 3042 3037 3033 3035 3034 3036 3036 3037 3037 3039 3040 3042 3043 3044 3045 3044 3043 3045 3046 3048 3051 3053 3055 3057 3059 3060 3061 3063 3062 3062
3040 3042 3042 3042 3042 3040 3040 3040 3039 3038 3036 3034 3032 3029 3027 3027 3027 3028 3029 3027 3028 3028 3029 3031 3034 3032 3034 3035 3034 3034 3035 3036 3038 3041 3043 3045 3048 3050 3052 3053 3054 3054 3055
3039 3039 3038 3037 3037 3037 3035 3034 3032 3031 3028 3028 3024 3023 3022 3021 3020 3020 3019 3017 3017 3020 3021 3021 3022 3022 3022 3022 3023 3023 3024 3025 3029 3030 3034 3037 3038 3040 3042 3043 3044 3044 3045
3037 3037 3035 3035 3032 3030 3028 3027 3025 3023 3020 3018 3017 3017 3015 3014 3012 3010 3009 3009 3008 3010 3010 3011 3010 3009 3009 3010 3011 3011 3013 3014 3018 3020 3023 3026 3029 3030 3032 3033 3034 3036 3035
3034 3033 3032 3031 3027 3025 3022 3020 3017 3015 3012 3011 3010 3007 3004 3002 3001 3000 3000 3000 3000 2999 2997 2998 2997 2998 2997 2998 2998 3000 3002 3005 3007 3009 3011 3014 3018 3020 3022 3022 3023 3024 3027
3026 3024 3022 3021 3020 3019 3017 3013 3011 3008 3006 3003 2998 2996 2994 2990 2989 2989 2988 2986 2985 2985 2984 2987 2986 2983 2984 2986 2988 2989 2989 2992 2997 3000 3002 3002 3007 3010 3012 3014 3014 3016 3018
3018 3015 3010 3007 3003 3000 2999 2998 2997 2995 2993 2992 2988 2985 2982 2978 2975 2973 2972 2972 2974 2973 2973 2971 2973 2972 2972 2975 2977 2979 2978 2984 2986 2988 2990 2993 2997 3000 3001 3004 3006 3008 3010
3012 3008 3004 3000 2996 2991 2987 2985 2982 2979 2978 2976 2975 2973 2970 2967 2964 2962 2960 2962 2961 2958 2956 2957 2959 2958 2962 2963 2964 2966 2969 2973 2975 2978 2979 2983 2986 2989 2992 2994 2996 2998 3001
3003 2999 2994 2991 2988 2983 2978 2974 2970 2965 2961 2960 2959 2956 2954 2953 2951 2949 2948 2948 2945 2944 2944 2945 2947 2948 2950 2951 2953 2952 2958 2962 2967 2968 2970 2972 2975 2978 2982 2985 2987 2988 2991
2993 2989 2985 2981 2977 2973 2967 2962 2957 2953 2949 2946 2944 2942 2940 2939 2938 2938 2936 2935 2932 2930 2929 2932 2935 2936 2936 2937 2938 2943 2947 2951 2953 2956 2959 2962 2966 2968 2971 2972 2976 2980 2981
2984 2979 2974 2969 2965 2960 2956 2951 2946 2940 2936 2933 2931 2930 2928 2927 2925 2924 2922 2920 2919 2919 2919 2921 2923 2924 2926 2928 2929 2932 2935 2939 2939 2941 2945 2952 2953 2956 2959 2962 2964 2969 2971
2973 2967 2962 2957 2952 2947 2942 2939 2935 2930 2925 2921 2919 2917 2916 2915 2914 2912 2912 2912 2910 2910 2909 2909 2909 2911 2913 2915 2918 2920 2924 2924 2929 2927 2932 2935 2939 2944 2948 2951 2953 2957 2960